QPF
0.00 0.00 0.00 0.00 0.00 0.00 0.00 0.00 0.00 0.00 0.00 0.00 0.00 0.00 0.01 0.02 0.01 0.01 0.00 0.01 0.02 0.03 0.03 0.04 0.05 0.04 0.03 0.02 0.02 0.02 0.01 0.01 0.02 0.02 0.04 0.06 0.05 0.06 0.07 0.05 0.06 0.06 0.04
0.00 0.00 0.00 0.00 0.00 0.00 0.00 0.00 0.00 0.00 0.00 0.00 0.00 0.00 0.00 0.01 0.01 0.01 0.02 0.02 0.02 0.03 0.03 0.04 0.05 0.05 0.04 0.03 0.02 0.02 0.02 0.02 0.02 0.02 0.03 0.04 0.05 0.06 0.07 0.07 0.06 0.06 0.04
0.00 0.00 0.00 0.00 0.00 0.00 0.00 0.00 0.00 0.00 0.00 0.00 0.00 0.00 0.00 0.00 0.00 0.00 0.01 0.01 0.02 0.03 0.03 0.03 0.03 0.03 0.03 0.03 0.03 0.03 0.03 0.02 0.02 0.03 0.03 0.04 0.05 0.07 0.06 0.06 0.06 0.06 0.05
0.00 0.00 0.00 0.00 0.00 0.00 0.00 0.00 0.00 0.00 0.00 0.00 0.00 0.00 0.00 0.00 0.00 0.00 0.00 0.00 0.01 0.01 0.01 0.02 0.01 0.01 0.01 0.02 0.02 0.01 0.01 0.01 0.01 0.02 0.04 0.04 0.05 0.06 0.06 0.05 0.04 0.04 0.06
0.00 0.00 0.00 0.00 0.00 0.00 0.00 0.00 0.00 0.00 0.00 0.00 0.00 0.00 0.00 0.00 0.00 0.00 0.00 0.00 0.00 0.01 0.01 0.01 0.01 0.01 0.01 0.00 0.00 0.01 0.01 0.01 0.01 0.02 0.03 0.04 0.04 0.04 0.05 0.04 0.04 0.04 0.05
0.00 0.00 0.00 0.00 0.00 0.00 0.00 0.00 0.00 0.00 0.00 0.00 0.00 0.00 0.00 0.00 0.00 0.00 0.00 0.00 0.00 0.00 0.01 0.01 0.01 0.01 0.01 0.01 0.00 0.01 0.01 0.00 0.00 0.01 0.02 0.02 0.02 0.02 0.02 0.03 0.04 0.03 0.05
0.00 0.00 0.00 0.00 0.00 0.00 0.00 0.00 0.00 0.00 0.00 0.00 0.00 0.00 0.00 0.00 0.00 0.00 0.01 0.01 0.01 0.01 0.01 0.01 0.01 0.01 0.01 0.01 0.01 0.01 0.01 0.00 0.00 0.00 0.01 0.01 0.01 0.01 0.01 0.02 0.03 0.02 0.02
0.00 0.00 0.00 0.00 0.00 0.00 0.00 0.00 0.00 0.00 0.00 0.00 0.00 0.00 0.00 0.00 0.00 0.00 0.01 0.01 0.01 0.00 0.01 0.01 0.01 0.01 0.01 0.01 0.01 0.01 0.01 0.00 0.00 0.00 0.00 0.01 0.01 0.01 0.01 0.01 0.02 0.02 0.03
0.00 0.00 0.00 0.00 0.00 0.00 0.00 0.00 0.00 0.00 0.00 0.00 0.00 0.00 0.00 0.00 0.00 0.00 0.01 0.00 0.00 0.00 0.01 0.01 0.01 0.00 0.01 0.02 0.01 0.01 0.00 0.00 0.00 0.00 0.01 0.02 0.02 0.01 0.01 0.01 0.01 0.02 0.02
0.00 0.00 0.00 0.00 0.00 0.00 0.00 0.00 0.00 0.00 0.00 0.00 0.00 0.00 0.00 0.00 0.00 0.00 0.01 0.01 0.01 0.01 0.01 0.01 0.01 0.01 0.01 0.02 0.02 0.01 0.01 0.01 0.01 0.01 0.01 0.02 0.02 0.02 0.02 0.02 0.01 0.02 0.02
0.00 0.00 0.00 0.00 0.00 0.00 0.00 0.00 0.00 0.00 0.00 0.00 0.00 0.00 0.00 0.00 0.00 0.00 0.00 0.01 0.01 0.01 0.00 0.00 0.01 0.02 0.02 0.02 0.03 0.03 0.02 0.02 0.02 0.02 0.02 0.01 0.02 0.02 0.02 0.01 0.01 0.02 0.02
0.00 0.00 0.00 0.00 0.00 0.00 0.00 0.00 0.00 0.00 0.00 0.00 0.00 0.00 0.00 0.00 0.00 0.00 0.00 0.00 0.00 0.01 0.01 0.01 0.01 0.02 0.02 0.03 0.03 0.04 0.04 0.03 0.03 0.03 0.03 0.02 0.02 0.02 0.02 0.02 0.02 0.02 0.02
0.00 0.00 0.00 0.00 0.00 0.00 0.00 0.00 0.00 0.00 0.00 0.00 0.00 0.00 0.00 0.00 0.00 0.00 0.00 0.00 0.00 0.00 0.00 0.00 0.01 0.01 0.01 0.02 0.03 0.03 0.04 0.04 0.03 0.03 0.02 0.02 0.02 0.02 0.02 0.03 0.03 0.03 0.03
0.00 0.00 0.00 0.00 0.00 0.00 0.00 0.00 0.00 0.00 0.00 0.00 0.00 0.00 0.00 0.00 0.00 0.00 0.00 0.00 0.00 0.00 0.00 0.00 0.00 0.01 0.01 0.02 0.03 0.03 0.02 0.02 0.03 0.03 0.03 0.03 0.03 0.03 0.03 0.04 0.04 0.04 0.03
0.00 0.00 0.00 0.00 0.00 0.00 0.00 0.00 0.00 0.00 0.00 0.00 0.00 0.00 0.00 0.00 0.00 0.00 0.00 0.00 0.00 0.00 0.00 0.00 0.00 0.01 0.01 0.02 0.03 0.04 0.02 0.01 0.01 0.02 0.02 0.03 0.04 0.04 0.04 0.04 0.04 0.04 0.03
0.00 0.00 0.00 0.00 0.00 0.00 0.00 0.00 0.00 0.00 0.00 0.00 0.00 0.00 0.00 0.00 0.00 0.00 0.00 0.00 0.00 0.00 0.00 0.00 0.00 0.01 0.02 0.01 0.02 0.03 0.02 0.02 0.02 0.01 0.01 0.02 0.03 0.03 0.04 0.04 0.04 0.03 0.03
0.00 0.00 0.00 0.00 0.00 0.00 0.00 0.00 0.00 0.00 0.00 0.00 0.00 0.00 0.00 0.00 0.00 0.00 0.00 0.00 0.00 0.00 0.00 0.00 0.00 0.00 0.01 0.01 0.01 0.01 0.01 0.01 0.01 0.01 0.01 0.01 0.02 0.02 0.03 0.03 0.02 0.02 0.02
0.00 0.00 0.00 0.00 0.00 0.00 0.00 0.00 0.00 0.00 0.00 0.00 0.00 0.00 0.00 0.00 0.00 0.00 0.00 0.00 0.00 0.00 0.00 0.00 0.00 0.00 0.00 0.00 0.00 0.01 0.01 0.01 0.00 0.00 0.00 0.01 0.01 0.01 0.02 0.02 0.02 0.02 0.02
0.00 0.00 0.00 0.00 0.00 0.00 0.00 0.00 0.00 0.00 0.00 0.00 0.00 0.00 0.01 0.01 0.01 0.01 0.00 0.00 0.00 0.00 0.00 0.00 0.00 0.00 0.00 0.00 0.00 0.00 0.00 0.00 0.00 0.00 0.00 0.00 0.01 0.01 0.01 0.02 0.02 0.01 0.01
0.00 0.00 0.00 0.00 0.00 0.00 0.00 0.00 0.00 0.00 0.00 0.00 0.00 0.00 0.01 0.01 0.00 0.00 0.00 0.00 0.00 0.00 0.00 0.00 0.00 0.00 0.00 0.00 0.00 0.00 0.00 0.00 0.00 0.00 0.00 0.00 0.00 0.01 0.01 0.01 0.01 0.01 0.01
0.00 0.00 0.00 0.00 0.00 0.00 0.00 0.00 0.00 0.00 0.00 0.00 0.00 0.00 0.01 0.01 0.01 0.01 0.01 0.00 0.00 0.00 0.00 0.00 0.00 0.00 0.00 0.00 0.00 0.00 0.00 0.00 0.00 0.00 0.00 0.00 0.00 0.00 0.01 0.01 0.00 0.01 0.01
0.00 0.00 0.00 0.00 0.00 0.00 0.00 0.00 0.00 0.00 0.00 0.01 0.01 0.01 0.01 0.01 0.01 0.01 0.01 0.01 0.00 0.00 0.00 0.00 0.00 0.00 0.00 0.00 0.00 0.00 0.00 0.00 0.00 0.00 0.00 0.00 0.00 0.00 0.00 0.00 0.00 0.01 0.01
0.00 0.00 0.00 0.00 0.00 0.01 0.01 0.01 0.01 0.01 0.01 0.01 0.01 0.02 0.02 0.02 0.02 0.02 0.02 0.01 0.01 0.00 0.00 0.00 0.00 0.00 0.00 0.01 0.00 0.00 0.00 0.00 0.00 0.00 0.00 0.00 0.00 0.00 0.00 0.00 0.00 0.00 0.00
0.01 0.01 0.01 0.01 0.01 0.01 0.01 0.01 0.01 0.01 0.01 0.01 0.01 0.01 0.01 0.01 0.01 0.02 0.02 0.02 0.01 0.01 0.01 0.01 0.01 0.01 0.01 0.00 0.00 0.00 0.00 0.00 0.00 0.00 0.00 0.00 0.00 0.00 0.00 0.00 0.00 0.00 0.00
0.01 0.01 0.01 0.01 0.01 0.01 0.01 0.01 0.01 0.01 0.01 0.01 0.01 0.01 0.01 0.01 0.02 0.02 0.02 0.02 0.02 0.01 0.01 0.01 0.01 0.01 0.01 0.01 0.01 0.00 0.00 0.00 0.00 0.00 0.00 0.00 0.00 0.00 0.00 0.00 0.00 0.00 0.00
0.01 0.01 0.01 0.01 0.01 0.02 0.02 0.02 0.02 0.01 0.01 0.01 0.01 0.01 0.01 0.02 0.02 0.02 0.02 0.02 0.02 0.02 0.02 0.02 0.01 0.02 0.02 0.01 0.02 0.02 0.02 0.02 0.01 0.01 0.01 0.00 0.00 0.00 0.00 0.00 0.00 0.00 0.00
MSLP
1012.65 1012.99 1013.31 1013.59 1013.82 1013.98 1014.08 1014.14 1014.17 1014.19 1014.23 1014.29 1014.36 1014.43 1014.50 1014.54 1014.56 1014.53 1014.46 1014.36 1014.24 1014.11 1013.98 1013.86 1013.76 1013.67 1013.62 1013.59 1013.59 1013.62 1013.69 1013.78 1013.88 1013.99 1014.07 1014.12 1014.12 1014.06 1013.96 1013.83 1013.68 1013.55 1013.46
1012.20 1012.55 1012.88 1013.19 1013.44 1013.63 1013.77 1013.86 1013.92 1013.98 1014.03 1014.10 1014.18 1014.26 1014.35 1014.42 1014.47 1014.48 1014.47 1014.43 1014.36 1014.28 1014.18 1014.07 1013.96 1013.86 1013.77 1013.72 1013.71 1013.75 1013.84 1013.97 1014.12 1014.28 1014.43 1014.54 1014.58 1014.56 1014.47 1014.34 1014.16 1013.99 1013.84
1011.77 1012.12 1012.47 1012.79 1013.06 1013.28 1013.44 1013.57 1013.66 1013.73 1013.79 1013.86 1013.95 1014.04 1014.13 1014.22 1014.29 1014.36 1014.40 1014.42 1014.41 1014.38 1014.32 1014.24 1014.15 1014.05 1013.97 1013.91 1013.89 1013.93 1014.03 1014.18 1014.36 1014.57 1014.75 1014.90 1014.98 1014.98 1014.91 1014.76 1014.58 1014.37 1014.17
1011.37 1011.71 1012.06 1012.38 1012.66 1012.90 1013.09 1013.23 1013.35 1013.44 1013.52 1013.60 1013.68 1013.77 1013.86 1013.96 1014.07 1014.16 1014.25 1014.32 1014.37 1014.40 1014.39 1014.35 1014.29 1014.22 1014.15 1014.09 1014.08 1014.12 1014.22 1014.38 1014.57 1014.79 1014.99 1015.15 1015.25 1015.27 1015.19 1015.05 1014.85 1014.62 1014.39
1010.99 1011.31 1011.63 1011.94 1012.22 1012.46 1012.67 1012.84 1012.98 1013.10 1013.20 1013.29 1013.38 1013.47 1013.57 1013.68 1013.79 1013.91 1014.03 1014.15 1014.24 1014.32 1014.36 1014.37 1014.35 1014.31 1014.26 1014.22 1014.22 1014.26 1014.36 1014.51 1014.70 1014.90 1015.10 1015.26 1015.35 1015.37 1015.30 1015.16 1014.96 1014.73 1014.49
1010.62 1010.90 1011.18 1011.45 1011.71 1011.95 1012.16 1012.36 1012.53 1012.68 1012.81 1012.93 1013.04 1013.15 1013.25 1013.36 1013.48 1013.61 1013.74 1013.88 1014.01 1014.12 1014.21 1014.26 1014.28 1014.28 1014.26 1014.25 1014.26 1014.31 1014.40 1014.54 1014.71 1014.89 1015.07 1015.21 1015.30 1015.31 1015.25 1015.12 1014.93 1014.71 1014.48
1010.26 1010.46 1010.67 1010.89 1011.12 1011.34 1011.56 1011.77 1011.98 1012.17 1012.34 1012.50 1012.64 1012.77 1012.89 1013.00 1013.12 1013.25 1013.39 1013.53 1013.67 1013.80 1013.92 1014.01 1014.07 1014.11 1014.13 1014.15 1014.18 1014.24 1014.33 1014.45 1014.60 1014.77 1014.92 1015.04 1015.11 1015.13 1015.07 1014.96 1014.81 1014.62 1014.41
1009.90 1010.01 1010.14 1010.29 1010.46 1010.65 1010.86 1011.09 1011.32 1011.56 1011.78 1011.98 1012.16 1012.32 1012.46 1012.58 1012.70 1012.82 1012.94 1013.08 1013.22 1013.36 1013.49 1013.61 1013.71 1013.79 1013.85 1013.91 1013.98 1014.05 1014.15 1014.27 1014.41 1014.55 1014.69 1014.79 1014.86 1014.88 1014.85 1014.77 1014.65 1014.51 1014.35
1009.57 1009.58 1009.61 1009.67 1009.78 1009.93 1010.12 1010.34 1010.59 1010.86 1011.11 1011.36 1011.58 1011.76 1011.92 1012.05 1012.17 1012.28 1012.40 1012.52 1012.66 1012.81 1012.95 1013.10 1013.23 1013.36 1013.47 1013.57 1013.68 1013.78 1013.90 1014.03 1014.16 1014.30 1014.42 1014.52 1014.59 1014.63 1014.63 1014.59 1014.52 1014.43 1014.33
1009.30 1009.20 1009.14 1009.11 1009.14 1009.22 1009.37 1009.57 1009.81 1010.08 1010.36 1010.62 1010.86 1011.07 1011.24 1011.39 1011.51 1011.62 1011.74 1011.86 1012.00 1012.16 1012.33 1012.50 1012.68 1012.85 1013.01 1013.17 1013.32 1013.46 1013.61 1013.75 1013.89 1014.03 1014.15 1014.26 1014.35 1014.41 1014.44 1014.45 1014.44 1014.41 1014.37
1009.12 1008.93 1008.78 1008.66 1008.60 1008.60 1008.68 1008.82 1009.02 1009.26 1009.52 1009.78 1010.02 1010.24 1010.42 1010.57 1010.70 1010.83 1010.95 1011.09 1011.25 1011.43 1011.63 1011.85 1012.07 1012.29 1012.51 1012.72 1012.92 1013.10 1013.28 1013.45 1013.60 1013.75 1013.89 1014.01 1014.12 1014.21 1014.29 1014.35 1014.39 1014.42 1014.44
1009.06 1008.80 1008.56 1008.35 1008.20 1008.11 1008.09 1008.14 1008.26 1008.43 1008.63 1008.84 1009.06 1009.26 1009.44 1009.59 1009.74 1009.88 1010.04 1010.21 1010.40 1010.63 1010.88 1011.15 1011.42 1011.70 1011.98 1012.24 1012.48 1012.71 1012.91 1013.10 1013.28 1013.45 1013.60 1013.74 1013.88 1014.01 1014.13 1014.24 1014.34 1014.43 1014.50
1009.12 1008.82 1008.51 1008.22 1007.96 1007.75 1007.62 1007.55 1007.55 1007.61 1007.71 1007.85 1008.00 1008.16 1008.32 1008.48 1008.64 1008.81 1009.00 1009.22 1009.47 1009.75 1010.06 1010.39 1010.73 1011.06 1011.39 1011.70 1011.98 1012.24 1012.47 1012.69 1012.88 1013.07 1013.24 1013.41 1013.58 1013.74 1013.91 1014.07 1014.23 1014.37 1014.50
1009.28 1008.95 1008.59 1008.22 1007.86 1007.54 1007.27 1007.05 1006.91 1006.83 1006.80 1006.83 1006.89 1006.99 1007.11 1007.25 1007.42 1007.63 1007.86 1008.14 1008.45 1008.79 1009.16 1009.55 1009.95 1010.34 1010.71 1011.06 1011.37 1011.66 1011.91 1012.15 1012.36 1012.57 1012.77 1012.97 1013.17 1013.39 1013.60 1013.82 1014.03 1014.23 1014.42
1009.50 1009.15 1008.75 1008.31 1007.86 1007.42 1007.01 1006.65 1006.34 1006.10 1005.93 1005.83 1005.78 1005.80 1005.87 1005.99 1006.15 1006.38 1006.65 1006.97 1007.34 1007.74 1008.17 1008.61 1009.05 1009.48 1009.89 1010.27 1010.61 1010.92 1011.19 1011.45 1011.69 1011.92 1012.16 1012.40 1012.65 1012.92 1013.19 1013.47 1013.75 1014.02 1014.26
1009.69 1009.34 1008.91 1008.42 1007.89 1007.35 1006.81 1006.31 1005.85 1005.46 1005.15 1004.90 1004.74 1004.66 1004.66 1004.74 1004.89 1005.11 1005.40 1005.75 1006.15 1006.59 1007.06 1007.54 1008.02 1008.47 1008.91 1009.30 1009.67 1010.00 1010.30 1010.58 1010.86 1011.13 1011.42 1011.71 1012.03 1012.37 1012.71 1013.07 1013.42 1013.75 1014.07
1009.80 1009.44 1009.00 1008.47 1007.89 1007.26 1006.63 1006.02 1005.43 1004.91 1004.46 1004.09 1003.82 1003.64 1003.56 1003.57 1003.68 1003.88 1004.15 1004.50 1004.91 1005.36 1005.84 1006.33 1006.82 1007.30 1007.74 1008.16 1008.55 1008.91 1009.25 1009.57 1009.90 1010.24 1010.59 1010.96 1011.36 1011.78 1012.21 1012.65 1013.08 1013.50 1013.88
1009.77 1009.41 1008.95 1008.41 1007.79 1007.13 1006.44 1005.74 1005.07 1004.45 1003.90 1003.42 1003.04 1002.77 1002.60 1002.53 1002.57 1002.71 1002.95 1003.26 1003.63 1004.06 1004.53 1005.01 1005.49 1005.97 1006.43 1006.87 1007.28 1007.69 1008.08 1008.47 1008.87 1009.29 1009.74 1010.21 1010.70 1011.22 1011.75 1012.28 1012.80 1013.29 1013.75
1009.57 1009.21 1008.75 1008.21 1007.59 1006.92 1006.20 1005.48 1004.76 1004.08 1003.45 1002.89 1002.42 1002.05 1001.79 1001.63 1001.58 1001.64 1001.79 1002.03 1002.34 1002.72 1003.14 1003.59 1004.05 1004.52 1005.00 1005.46 1005.92 1006.39 1006.85 1007.33 1007.83 1008.35 1008.90 1009.49 1010.09 1010.72 1011.35 1011.97 1012.58 1013.15 1013.68
1009.21 1008.84 1008.39 1007.87 1007.28 1006.62 1005.92 1005.20 1004.48 1003.77 1003.09 1002.48 1001.93 1001.47 1001.11 1000.85 1000.69 1000.64 1000.68 1000.82 1001.05 1001.34 1001.70 1002.11 1002.55 1003.02 1003.50 1004.01 1004.53 1005.06 1005.62 1006.20 1006.81 1007.45 1008.13 1008.83 1009.55 1010.28 1011.01 1011.73 1012.42 1013.06 1013.64
1008.70 1008.33 1007.91 1007.41 1006.86 1006.25 1005.59 1004.90 1004.19 1003.47 1002.78 1002.12 1001.51 1000.97 1000.51 1000.14 999.86 999.69 999.61 999.64 999.76 999.97 1000.26 1000.61 1001.03 1001.49 1002.01 1002.56 1003.15 1003.77 1004.43 1005.12 1005.85 1006.61 1007.41 1008.22 1009.05 1009.88 1010.71 1011.50 1012.26 1012.96 1013.59
1008.09 1007.72 1007.32 1006.86 1006.36 1005.80 1005.19 1004.54 1003.86 1003.16 1002.45 1001.76 1001.10 1000.48 999.92 999.44 999.05 998.75 998.56 998.47 998.49 998.61 998.83 999.14 999.54 1000.01 1000.56 1001.17 1001.83 1002.54 1003.31 1004.11 1004.96 1005.83 1006.73 1007.65 1008.57 1009.48 1010.38 1011.23 1012.04 1012.79 1013.46
1007.41 1007.05 1006.66 1006.25 1005.79 1005.28 1004.72 1004.11 1003.45 1002.76 1002.05 1001.33 1000.61 999.93 999.29 998.71 998.21 997.81 997.51 997.32 997.25 997.30 997.47 997.75 998.14 998.63 999.22 999.88 1000.62 1001.42 1002.28 1003.18 1004.12 1005.09 1006.08 1007.07 1008.07 1009.04 1009.98 1010.88 1011.73 1012.51 1013.20
1006.70 1006.34 1005.98 1005.59 1005.16 1004.69 1004.16 1003.57 1002.93 1002.25 1001.52 1000.77 1000.02 999.28 998.57 997.92 997.34 996.85 996.47 996.21 996.08 996.08 996.22 996.50 996.89 997.41 998.03 998.75 999.55 1000.43 1001.36 1002.34 1003.35 1004.39 1005.44 1006.49 1007.52 1008.53 1009.51 1010.43 1011.30 1012.10 1012.81
1005.98 1005.63 1005.28 1004.90 1004.49 1004.03 1003.51 1002.94 1002.30 1001.60 1000.86 1000.09 999.30 998.53 997.77 997.07 996.45 995.91 995.49 995.19 995.03 995.02 995.15 995.43 995.85 996.39 997.05 997.82 998.67 999.60 1000.59 1001.62 1002.67 1003.75 1004.83 1005.91 1006.96 1007.99 1008.97 1009.91 1010.78 1011.59 1012.33
1005.27 1004.93 1004.57 1004.20 1003.78 1003.31 1002.79 1002.21 1001.56 1000.85 1000.10 999.31 998.51 997.72 996.95 996.24 995.60 995.06 994.63 994.34 994.19 994.19 994.34 994.63 995.07 995.64 996.34 997.14 998.03 998.98 1000.00 1001.05 1002.13 1003.22 1004.31 1005.39 1006.44 1007.46 1008.44 1009.37 1010.25 1011.07 1011.81
Thickness
5712 5709 5706 5703 5700 5697 5694 5691 5688 5686 5684 5681 5678 5676 5673 5671 5668 5666 5664 5663 5661 5660 5660 5660 5660 5660 5660 5661 5662 5663 5664 5665 5665 5668 5671 5675 5679 5682 5685 5688 5691 5693 5695
5712 5709 5706 5703 5700 5696 5694 5691 5689 5686 5684 5681 5679 5676 5674 5671 5669 5666 5664 5663 5661 5660 5660 5660 5660 5660 5660 5660 5661 5662 5663 5664 5665 5665 5667 5670 5674 5677 5679 5682 5684 5687 5689
5712 5708 5705 5702 5699 5696 5694 5692 5689 5686 5684 5681 5678 5676 5673 5671 5669 5666 5664 5663 5662 5660 5660 5659 5660 5659 5659 5659 5660 5660 5661 5663 5663 5663 5664 5666 5669 5672 5673 5676 5678 5680 5682
5710 5707 5704 5702 5699 5697 5694 5691 5689 5686 5683 5681 5678 5676 5674 5672 5669 5667 5665 5663 5662 5661 5660 5659 5659 5659 5659 5659 5659 5659 5660 5660 5660 5661 5661 5662 5664 5666 5668 5669 5670 5673 5675
5709 5706 5704 5702 5700 5696 5693 5691 5688 5685 5683 5681 5678 5676 5674 5672 5670 5668 5665 5663 5661 5660 5659 5659 5659 5659 5659 5659 5659 5658 5658 5657 5657 5657 5657 5658 5659 5661 5662 5664 5664 5666 5668
5708 5706 5704 5701 5698 5695 5693 5690 5687 5685 5682 5680 5677 5675 5673 5673 5672 5670 5667 5663 5661 5659 5658 5658 5658 5658 5659 5659 5659 5659 5658 5656 5655 5654 5654 5655 5656 5657 5658 5659 5659 5659 5660
5707 5705 5703 5700 5697 5694 5692 5689 5686 5683 5681 5678 5676 5674 5673 5672 5672 5670 5668 5663 5661 5658 5657 5656 5656 5657 5656 5656 5656 5657 5656 5657 5656 5654 5653 5653 5653 5655 5655 5655 5654 5654 5655
5705 5703 5701 5698 5695 5693 5690 5687 5685 5682 5679 5677 5675 5673 5672 5671 5671 5669 5667 5663 5660 5657 5656 5654 5653 5653 5654 5653 5653 5652 5652 5652 5653 5653 5652 5652 5653 5653 5652 5652 5651 5650 5650
5702 5701 5699 5697 5693 5690 5688 5686 5684 5681 5678 5676 5674 5672 5670 5670 5670 5668 5665 5661 5658 5656 5654 5653 5652 5652 5653 5652 5650 5648 5648 5648 5649 5650 5650 5649 5650 5650 5649 5647 5646 5645 5644
5700 5700 5698 5695 5692 5689 5687 5685 5682 5680 5677 5675 5672 5671 5669 5668 5668 5666 5664 5659 5656 5654 5652 5651 5651 5651 5650 5649 5647 5645 5644 5644 5644 5645 5644 5644 5644 5644 5644 5643 5642 5640 5638
5698 5696 5694 5692 5690 5688 5685 5682 5680 5677 5674 5671 5670 5668 5667 5666 5665 5664 5662 5657 5654 5652 5650 5648 5648 5649 5648 5647 5645 5643 5643 5642 5640 5640 5638 5638 5637 5637 5637 5637 5636 5635 5634
5692 5690 5689 5687 5686 5685 5681 5678 5675 5672 5669 5667 5665 5664 5663 5662 5662 5661 5660 5657 5654 5650 5648 5646 5645 5645 5645 5643 5641 5640 5640 5638 5635 5634 5632 5631 5630 5630 5630 5630 5629 5629 5628
5684 5683 5682 5681 5679 5678 5675 5672 5669 5667 5665 5663 5661 5660 5659 5658 5657 5657 5656 5654 5651 5648 5645 5644 5642 5641 5640 5638 5637 5636 5634 5632 5630 5628 5626 5625 5624 5623 5623 5622 5621 5621 5620
5674 5674 5673 5672 5671 5670 5668 5667 5665 5662 5660 5659 5657 5656 5655 5653 5652 5651 5650 5648 5646 5643 5640 5639 5637 5635 5633 5631 5630 5628 5627 5626 5624 5622 5620 5618 5618 5617 5616 5615 5613 5612 5611
5665 5665 5664 5663 5661 5660 5660 5659 5659 5659 5658 5657 5655 5654 5651 5650 5651 5650 5647 5644 5641 5639 5634 5631 5628 5626 5624 5622 5621 5620 5619 5617 5616 5614 5613 5611 5610 5609 5607 5606 5604 5603 5600
5653 5653 5653 5652 5651 5650 5649 5648 5650 5651 5652 5652 5652 5650 5649 5650 5648 5646 5643 5641 5638 5634 5629 5625 5622 5620 5619 5617 5615 5612 5611 5610 5608 5607 5605 5604 5602 5601 5599 5597 5595 5593 5591
5642 5642 5642 5642 5642 5641 5640 5640 5639 5639 5641 5642 5643 5643 5643 5642 5641 5639 5636 5634 5630 5627 5622 5620 5618 5615 5613 5611 5608 5606 5604 5602 5601 5599 5598 5596 5594 5592 5590 5588 5586 5583 5581
5630 5632 5632 5632 5632 5632 5632 5632 5631 5630 5629 5629 5632 5633 5633 5633 5632 5631 5628 5624 5619 5617 5616 5615 5613 5610 5607 5604 5602 5600 5597 5595 5593 5591 5589 5587 5586 5584 5581 5578 5576 5574 5572
5616 5619 5621 5621 5621 5622 5622 5622 5621 5621 5621 5620 5619 5621 5623 5622 5621 5620 5618 5615 5613 5611 5609 5608 5607 5604 5601 5598 5596 5593 5590 5588 5585 5583 5580 5578 5576 5574 5571 5569 5566 5564 5562
5603 5607 5609 5609 5610 5610 5610 5610 5610 5610 5610 5610 5610 5610 5610 5608 5608 5608 5608 5607 5606 5605 5603 5601 5599 5597 5595 5592 5588 5585 5582 5579 5576 5574 5572 5569 5567 5564 5562 5559 5557 5554 5552
5589 5592 5595 5596 5598 5599 5599 5600 5600 5600 5600 5600 5601 5602 5601 5601 5601 5601 5599 5599 5599 5598 5596 5594 5591 5589 5586 5584 5581 5578 5575 5572 5569 5566 5563 5560 5558 5555 5552 5550 5547 5545 5542
5575 5578 5580 5583 5585 5587 5588 5589 5589 5590 5590 5590 5589 5589 5590 5590 5591 5591 5591 5591 5591 5590 5589 5586 5583 5581 5579 5576 5574 5571 5567 5564 5561 5558 5554 5551 5548 5545 5542 5539 5537 5534 5532
5561 5565 5568 5570 5573 5575 5576 5577 5578 5579 5580 5580 5580 5579 5579 5580 5581 5582 5582 5582 5581 5580 5578 5576 5574 5572 5570 5568 5566 5564 5561 5557 5554 5551 5546 5542 5539 5536 5533 5530 5527 5524 5522
5549 5552 5555 5558 5560 5563 5565 5566 5567 5568 5570 5570 5570 5570 5570 5571 5572 5572 5572 5572 5570 5569 5568 5566 5565 5563 5560 5558 5556 5554 5552 5549 5545 5542 5539 5534 5530 5527 5523 5520 5517 5515 5513
5536 5539 5542 5545 5548 5551 5553 5555 5557 5558 5559 5560 5561 5561 5561 5561 5562 5562 5562 5561 5560 5558 5557 5555 5554 5552 5550 5548 5546 5544 5542 5539 5535 5532 5528 5525 5521 5518 5514 5511 5508 5505 5502
5525 5528 5531 5533 5536 5539 5542 5544 5546 5548 5550 5551 5552 5552 5552 5552 5552 5552 5551 5551 5549 5547 5545 5544 5542 5541 5539 5537 5536 5534 5532 5529 5525 5522 5518 5515 5511 5508 5504 5501 5498 5495 5492